"Pseudo-MPEC" for C0MHJ75

Created 2023 Nov 30 8:22:02 UT using Find_Orb

Click here for an explanation of pseudo-MPECs

 
 Astrometry: 
     C0MHJ75* C2023 11 12.48368805 52 13.811+47 30 43.31   ~BCCq 22.65GVNEOCPV00
     C0MHJ75  C2023 11 12.49200205 52 12.299+47 30 54.65   ~BCCq 22.59GVNEOCPV00
     C0MHJ75  C2023 11 12.50301605 52 10.297+47 31 09.08   ~BCCq 22.42GVNEOCPV00
     C0MHJ75 mC2023 11 13.39262005 49 42.750+47 51 03.90   ~BDA7 22.36GVNEOCPV00
     C0MHJ75 mC2023 11 13.39481805 49 42.360+47 51 06.80   ~BDA7 22.53GVNEOCPV00
     C0MHJ75 mC2023 11 13.39733905 49 41.850+47 51 09.80   ~BDA7       VNEOCPV00

Station data:
(V00) Kitt Peak-Bok  (N31.963125 W111.600190)  US/Arizona.  Observers T. A.
   Pruyne, B. M. Africano, E. J. Christensen, G. A. Farneth, D. C. Fuls, A.
   R. Gibbs, A. D. Grauer, H. Gröller, J. A. Johnson, R. A. Kowalski, S. M.
   Larson, G. J. Leonard, D. Rankin, R. L. Seaman, F. C. Shelly, K. W.
   Wierzchoś. 2.25-m reflector + 4x4K mosaic CCD.

Orbital elements:  C0MHJ75
   Perihelion 2023 Sep 22.35835 +/- 114 TT =  8:36:01 (JD 2460209.85835)
Epoch 2023 Nov 13.0 TT = JDT 2460261.5   Earth MOID: 0.0306   Ju: 0.1237
M   6.87967653 +/- 100              (J2000 ecliptic)             AutoNEOCP
n   0.13321954 +/- 0.234            Peri.  326.44110 +/- 27
a   3.79685567 +/- 4.44             Node    32.42381 +/- 35
e   0.7456538 +/- 0.195             Incl.   13.33108 +/- 4.1
P   7.40                   H 23.51  G  0.15   U 11.8  SR
q 0.96571545 +/- 0.172    Q 6.62799589 +/- 1.91
From 6 observations 2023 Nov. 12-13 (21.9 hr); mean residual 0".14
Residuals in arcseconds: 
231112 V00  .10+  .08-    231112 V00  .12-  .07-    231113 V00  .21+  .11+    
231112 V00  .02+  .15+    231113 V00  .08+  .07+    231113 V00  .28-  .17-    

Ephemerides (geocentric):
Date (UTC) HH   RA             Dec           delta  r     elong  mag " sig PA
---- --------  ------------   ------------  ------ ------ -----  --- --------
2023 11 30 08  05 04 45.330   +50 27 59.72  .43885 1.3837 149.9 23.5 212'  80
2023 11 30 09  05 04 39.625   +50 27 58.57  .43922 1.3841 150.0 23.5 213'  80
2023 11 30 10  05 04 33.927   +50 27 57.34  .43958 1.3845 150.0 23.5 214'  80
2023 11 30 11  05 04 28.236   +50 27 56.02  .43995 1.3849 150.0 23.5 215'  80
2023 11 30 12  05 04 22.552   +50 27 54.60  .44032 1.3853 150.0 23.5 216'  80
2023 11 30 13  05 04 16.874   +50 27 53.10  .44068 1.3857 150.1 23.5 217'  80
2023 11 30 14  05 04 11.204   +50 27 51.51  .44105 1.3861 150.1 23.5 219'  80
2023 11 30 15  05 04 05.540   +50 27 49.83  .44141 1.3865 150.1 23.5 220'  80
2023 11 30 16  05 03 59.882   +50 27 48.07  .44178 1.3869 150.1 23.5 221'  80
2023 11 30 17  05 03 54.232   +50 27 46.21  .44215 1.3872 150.1 23.5 222'  80
2023 11 30 18  05 03 48.588   +50 27 44.27  .44251 1.3876 150.2 23.5 223'  80
2023 11 30 19  05 03 42.951   +50 27 42.24  .44288 1.3880 150.2 23.5 225'  81
2023 11 30 20  05 03 37.321   +50 27 40.12  .44325 1.3884 150.2 23.5 226'  81
2023 11 30 21  05 03 31.698   +50 27 37.91  .44362 1.3888 150.2 23.5 227'  81
2023 11 30 22  05 03 26.082   +50 27 35.62  .44399 1.3892 150.2 23.5 228'  81
2023 11 30 23  05 03 20.472   +50 27 33.24  .44435 1.3896 150.3 23.5 229'  81
2023 12 01 00  05 03 14.870   +50 27 30.77  .44472 1.3900 150.3 23.5 231'  81
2023 12 01 01  05 03 09.274   +50 27 28.22  .44509 1.3904 150.3 23.5 232'  81
2023 12 01 02  05 03 03.685   +50 27 25.58  .44546 1.3908 150.3 23.5 233'  81
2023 12 01 03  05 02 58.103   +50 27 22.85  .44583 1.3912 150.3 23.5 234'  81
2023 12 01 04  05 02 52.528   +50 27 20.04  .44620 1.3916 150.4 23.5 235'  81
2023 12 01 05  05 02 46.960   +50 27 17.14  .44657 1.3920 150.4 23.5 237'  81
2023 12 01 06  05 02 41.399   +50 27 14.15  .44694 1.3924 150.4 23.5 238'  81
2023 12 01 07  05 02 35.845   +50 27 11.08  .44731 1.3928 150.4 23.5 239'  81
2023 12 01 08  05 02 30.297   +50 27 07.93  .44768 1.3932 150.4 23.5 240'  82
2023 12 01 09  05 02 24.757   +50 27 04.69  .44805 1.3936 150.5 23.5 242'  82
2023 12 01 10  05 02 19.224   +50 27 01.36  .44842 1.3940 150.5 23.5 243'  82
2023 12 01 11  05 02 13.697   +50 26 57.95  .44879 1.3944 150.5 23.5 244'  82
2023 12 01 12  05 02 08.178   +50 26 54.46  .44916 1.3947 150.5 23.5 245'  82
2023 12 01 13  05 02 02.665   +50 26 50.88  .44954 1.3951 150.5 23.5 247'  82
2023 12 01 14  05 01 57.160   +50 26 47.22  .44991 1.3955 150.6 23.5 248'  82
2023 12 01 15  05 01 51.662   +50 26 43.47  .45028 1.3959 150.6 23.5 249'  82
2023 12 01 16  05 01 46.170   +50 26 39.64  .45065 1.3963 150.6 23.5 250'  82
2023 12 01 17  05 01 40.686   +50 26 35.73  .45102 1.3967 150.6 23.5 252'  82
2023 12 01 18  05 01 35.209   +50 26 31.73  .45140 1.3971 150.6 23.5 253'  82
2023 12 01 19  05 01 29.738   +50 26 27.65  .45177 1.3975 150.7 23.5 254'  82
2023 12 01 20  05 01 24.275   +50 26 23.49  .45214 1.3979 150.7 23.5 256'  82
2023 12 01 21  05 01 18.819   +50 26 19.24  .45252 1.3983 150.7 23.5 257'  83
2023 12 01 22  05 01 13.370   +50 26 14.91  .45289 1.3987 150.7 23.5 258'  83
2023 12 01 23  05 01 07.928   +50 26 10.50  .45327 1.3991 150.7 23.5 259'  83
2023 12 02 00  05 01 02.494   +50 26 06.01  .45364 1.3995 150.8 23.5 261'  83
2023 12 02 01  05 00 57.066   +50 26 01.44  .45401 1.3999 150.8 23.5 262'  83
2023 12 02 02  05 00 51.645   +50 25 56.78  .45439 1.4003 150.8 23.5 263'  83
2023 12 02 03  05 00 46.232   +50 25 52.04  .45476 1.4007 150.8 23.5 265'  83
2023 12 02 04  05 00 40.826   +50 25 47.22  .45514 1.4011 150.8 23.5 266'  83
2023 12 02 05  05 00 35.427   +50 25 42.32  .45552 1.4015 150.8 23.5 267'  83
2023 12 02 06  05 00 30.035   +50 25 37.34  .45589 1.4019 150.9 23.5 269'  83
2023 12 02 07  05 00 24.650   +50 25 32.28  .45627 1.4023 150.9 23.5 270'  83